Skagway, AK

3:52 PM AKDT on June 24, 2017 (GMT -0800)
Skagway

Weather History for PAGY - April, 2012

Change the Weather History Date:

Friday, April 27, 2012

  Actual Average Record
Temperature  
Mean Temperature 44 °F -  
Max Temperature 50 °F 50 °F 72 °F (2003)
Min Temperature 41 °F 35 °F 27 °F (1966)
Degree Days  
Heating Degree Days 20    
Moisture  
Dew Point 37 °F    
Average Humidity 78    
Maximum Humidity 96    
Minimum Humidity 54    
Precipitation  
Precipitation 0.00 in - - ()
Sea Level Pressure  
Sea Level Pressure 29.76 in    
Wind  
Wind Speed 6 mph (SSW)    
Max Wind Speed 23 mph    
Max Gust Speed 31 mph    
Visibility 10 miles    
Events Rain    
Averages and records for this station are not official NWS values.
T = Trace of Precipitation, MM = Missing Value Source: NWS Daily Summary

Daily Weather History Graph

Daily Weather History Graph

Search for Another Location

Airport or City:

Trip Planner

Search our weather history database for the weather conditions in past years. The results will help you decide how hot, cold, wet, or windy it might be!

Date:

Astronomy

Apr. 27, 2012 Rise Set
Actual Time 5:10 AM AKDT 8:48 PM AKDT
Civil Twilight 4:20 AM AKDT 9:39 PM AKDT
Nautical Twilight 3:07 AM AKDT 10:53 PM AKDT
Astronomical Twilight 1:31 AM AKDT 12:26 AM AKDT
Moon 9:34 AM AKDT (4/27) 2:04 AM AKDT (4/27)
Length of Visible Light 17h 18m
Length of Day
15h 37m
Waxing Crescent, 34% of the Moon is Illuminated
Apr 27
Waxing Crescent
Apr 29
First Quarter
May 5
Full
May 12
Last Quarter
May 20
New

Hourly Weather History & Observations

Time (AKDT) Temp. Windchill Dew Point Humidity Pressure Visibility Wind Dir Wind Speed Gust Speed Precip Events Conditions
12:18 AM 41.0 °F - 39.2 °F 93% 29.73 in 10.0 mi Calm Calm - N/A   Overcast
12:26 AM 41.0 °F - 39.2 °F 93% 29.73 in 10.0 mi Calm Calm - 0.00 in Rain Light Rain
12:53 AM 41.0 °F - 39.9 °F 96% 29.73 in 10.0 mi Calm Calm - 0.00 in   Overcast
1:53 AM 41.0 °F - 39.9 °F 96% 29.73 in 10.0 mi Calm Calm - N/A   Overcast
2:11 AM 42.8 °F - 39.2 °F 87% 29.73 in 10.0 mi Calm Calm - N/A   Overcast
2:53 AM 41.0 °F - 39.0 °F 93% 29.74 in 10.0 mi Calm Calm - N/A   Overcast
3:40 AM 41.0 °F 38.0 °F 39.2 °F 93% 29.74 in 10.0 mi SSW 4.6 mph - N/A   Overcast
3:53 AM 41.0 °F - 39.0 °F 93% 29.73 in 10.0 mi Calm Calm - N/A   Overcast
4:22 AM 41.0 °F - 37.4 °F 87% 29.74 in 10.0 mi Calm Calm - N/A   Overcast
4:35 AM 41.0 °F - 37.4 °F 87% 29.74 in 10.0 mi Calm Calm - N/A   Overcast
4:53 AM 41.0 °F - 37.9 °F 89% 29.74 in 10.0 mi Calm Calm - N/A   Overcast
5:28 AM 41.0 °F 37.1 °F 37.4 °F 87% 29.74 in 10.0 mi SSW 5.8 mph - N/A   Overcast
5:37 AM 41.0 °F 36.4 °F 37.4 °F 87% 29.75 in 10.0 mi WSW 6.9 mph - N/A   Overcast
5:46 AM 41.0 °F 37.1 °F 37.4 °F 87% 29.74 in 10.0 mi WSW 5.8 mph - N/A   Overcast
5:53 AM 41.0 °F 38.0 °F 37.9 °F 89% 29.75 in 10.0 mi WSW 4.6 mph - N/A   Overcast
6:20 AM 41.0 °F 38.0 °F 37.4 °F 87% 29.75 in 10.0 mi SSW 4.6 mph - N/A   Overcast
6:44 AM 41.0 °F 39.0 °F 39.2 °F 93% 29.75 in 10.0 mi West 3.5 mph - N/A   Overcast
6:53 AM 41.0 °F - 39.0 °F 93% 29.74 in 10.0 mi Calm Calm - N/A   Overcast
7:53 AM 43.0 °F 40.3 °F 37.9 °F 82% 29.75 in 10.0 mi SSE 4.6 mph - N/A   Overcast
8:53 AM 45.0 °F 39.3 °F 37.0 °F 74% 29.75 in 10.0 mi South 11.5 mph - N/A   Overcast
9:53 AM 45.0 °F 37.9 °F 37.0 °F 74% 29.75 in 10.0 mi SSW 16.1 mph - N/A   Overcast
10:53 AM 46.9 °F - 36.0 °F 66% 29.74 in 10.0 mi SSW 15.0 mph - N/A   Overcast
11:53 AM 48.0 °F - 34.0 °F 58% 29.75 in 10.0 mi SSW 19.6 mph - N/A   Overcast
12:53 PM 48.0 °F - 33.1 °F 56% 29.75 in 10.0 mi SSW 20.7 mph - N/A   Mostly Cloudy
1:53 PM 48.9 °F - 34.0 °F 56% 29.76 in 10.0 mi SSW 23.0 mph 28.8 mph N/A   Overcast
2:53 PM 48.0 °F - 33.1 °F 56% 29.77 in 10.0 mi SSW 23.0 mph 28.8 mph N/A   Overcast
3:53 PM 48.9 °F - 33.1 °F 54% 29.77 in 10.0 mi SSW 21.9 mph - N/A   Partly Cloudy
4:53 PM 48.9 °F - 34.0 °F 56% 29.78 in 10.0 mi SSW 19.6 mph 26.5 mph N/A   Clear
5:53 PM 48.0 °F - 35.1 °F 61% 29.79 in 10.0 mi SSW 19.6 mph - N/A   Overcast
6:53 PM 46.0 °F 38.0 °F 35.1 °F 66% 29.80 in 10.0 mi SSW 21.9 mph 27.6 mph N/A   Mostly Cloudy
7:53 PM 46.0 °F 39.9 °F 35.1 °F 66% 29.82 in 10.0 mi SSW 13.8 mph - N/A   Mostly Cloudy
8:53 PM 45.0 °F 37.1 °F 35.1 °F 68% 29.82 in 10.0 mi SSW 19.6 mph 28.8 mph N/A   Overcast
9:53 PM 45.0 °F 37.6 °F 36.0 °F 71% 29.85 in 10.0 mi SSW 17.3 mph 26.5 mph N/A   Overcast
10:53 PM 45.0 °F 36.9 °F 37.0 °F 74% 29.86 in 10.0 mi SSW 20.7 mph 31.1 mph N/A   Overcast
11:53 PM 45.0 °F 37.6 °F 36.0 °F 71% 29.87 in 10.0 mi SSW 17.3 mph 27.6 mph N/A   Overcast